TimeMST,TemperatureF,Dew PointF,Humidity,Sea Level PressureIn,VisibilityMPH,Wind Direction,Wind SpeedMPH,Gust SpeedMPH,PrecipitationIn,Events,Conditions,WindDirDegrees,DateUTC
12:53 AM,21.0,14.0,74,29.99,10.0,Calm,Calm,-,N/A,,Clear,0,2013-01-10 07:53:00
1:53 AM,26.1,17.1,69,29.92,10.0,SSE,11.5,-,N/A,,Clear,160,2013-01-10 08:53:00
2:53 AM,25.0,16.0,69,29.91,10.0,SSE,11.5,-,N/A,,Clear,150,2013-01-10 09:53:00
3:53 AM,21.0,14.0,74,29.89,10.0,South,4.6,-,N/A,,Clear,170,2013-01-10 10:53:00
4:53 AM,19.9,14.0,78,29.90,10.0,SSE,5.8,-,N/A,,Clear,160,2013-01-10 11:53:00
5:53 AM,25.0,17.1,72,29.86,10.0,SSE,10.4,-,N/A,,Clear,150,2013-01-10 12:53:00
6:53 AM,26.1,18.0,71,29.86,10.0,SSE,15.0,-,N/A,,Clear,150,2013-01-10 13:53:00
7:53 AM,26.1,18.0,71,29.84,10.0,South,10.4,-,N/A,,Overcast,170,2013-01-10 14:53:00
8:53 AM,26.1,19.0,75,29.83,10.0,SE,11.5,-,N/A,,Overcast,140,2013-01-10 15:53:00
9:53 AM,25.0,18.0,75,29.81,10.0,SSE,6.9,-,N/A,,Partly Cloudy,150,2013-01-10 16:53:00
10:53 AM,28.0,19.0,69,29.76,10.0,SSE,6.9,-,N/A,,Overcast,150,2013-01-10 17:53:00
11:53 AM,28.0,19.9,72,29.73,10.0,SE,11.5,-,N/A,,Scattered Clouds,140,2013-01-10 18:53:00
12:53 PM,28.0,19.0,69,29.64,10.0,SE,16.1,-,N/A,,Clear,140,2013-01-10 19:53:00
1:53 PM,30.0,21.0,69,29.57,10.0,SSE,16.1,-,N/A,,Mostly Cloudy,150,2013-01-10 20:53:00
2:49 PM,28.4,21.2,74,29.62,6.0,SSE,18.4,24.2,0.00,Snow,Light Snow,150,2013-01-10 21:49:00
2:53 PM,28.9,21.0,72,29.55,3.0,SSE,20.7,29.9,0.00,Snow,Light Snow,150,2013-01-10 21:53:00
3:01 PM,28.4,21.2,74,29.62,2.5,SSE,19.6,29.9,0.00,Snow,Light Snow,150,2013-01-10 22:01:00
3:09 PM,28.4,19.4,69,29.61,5.0,SSE,17.3,-,0.00,Snow,Light Snow,150,2013-01-10 22:09:00
3:27 PM,28.4,19.4,69,29.60,7.0,SSE,21.9,-,0.00,Snow,Light Snow,150,2013-01-10 22:27:00
3:53 PM,28.0,19.0,69,29.54,9.0,SSE,20.7,-,0.00,,Overcast,150,2013-01-10 22:53:00
4:53 PM,27.0,18.0,69,29.53,10.0,SSE,13.8,-,N/A,,Overcast,160,2013-01-10 23:53:00
5:53 PM,27.0,19.0,72,29.49,10.0,South,13.8,-,N/A,,Overcast,180,2013-01-11 00:53:00
6:32 PM,26.6,23.0,86,29.54,2.0,SSW,17.3,-,0.00,Snow,Light Snow,200,2013-01-11 01:32:00
6:40 PM,26.6,24.8,93,29.54,1.2,South,13.8,25.3,0.00,Snow,Light Snow,190,2013-01-11 01:40:00
6:53 PM,26.1,23.0,88,29.46,3.0,SSW,12.7,-,0.00,Snow,Light Snow,200,2013-01-11 01:53:00
7:03 PM,26.6,21.2,80,29.51,8.0,SSW,10.4,-,0.00,Snow,Light Snow,200,2013-01-11 02:03:00
7:14 PM,26.6,21.2,80,29.52,2.5,SSW,12.7,-,0.00,Snow,Light Snow,210,2013-01-11 02:14:00
7:20 PM,26.6,23.0,86,29.52,0.8,SW,10.4,-,0.00,Snow,Light Snow,220,2013-01-11 02:20:00
7:31 PM,24.8,24.8,100,29.52,0.2,SW,9.2,18.4,0.01,Fog-Snow,Heavy Snow,230,2013-01-11 02:31:00
7:35 PM,24.8,24.8,100,29.52,0.5,WSW,8.1,18.4,0.01,Fog-Snow,Snow,240,2013-01-11 02:35:00
7:53 PM,23.0,21.0,92,29.48,0.8,WSW,26.5,34.5,0.02,Snow,Light Snow,250,2013-01-11 02:53:00
8:02 PM,21.2,19.4,93,29.53,0.5,WSW,27.6,35.7,0.00,Fog-Snow,Snow,240,2013-01-11 03:02:00
8:34 PM,19.4,19.4,100,29.54,1.0,WSW,12.7,-,0.00,Snow,Light Snow,250,2013-01-11 03:34:00
8:40 PM,19.4,17.6,93,29.53,3.0,West,12.7,-,0.00,Snow,Light Snow,260,2013-01-11 03:40:00
8:46 PM,19.4,17.6,93,29.52,1.8,West,20.7,28.8,0.00,Snow,Light Snow,260,2013-01-11 03:46:00
8:53 PM,19.9,17.1,89,29.50,1.0,West,16.1,28.8,0.00,Snow,Light Snow,260,2013-01-11 03:53:00
9:07 PM,19.4,17.6,93,29.52,0.8,West,17.3,-,0.00,Snow,Light Snow,260,2013-01-11 04:07:00
9:10 PM,19.4,17.6,93,29.52,1.0,West,13.8,-,0.00,Snow,Light Snow,260,2013-01-11 04:10:00
9:42 PM,17.6,15.8,93,29.55,1.0,WNW,8.1,-,0.01,Snow,Light Snow,290,2013-01-11 04:42:00
9:53 PM,18.0,14.0,84,29.53,1.0,WNW,8.1,-,0.01,Snow,Light Snow,290,2013-01-11 04:53:00
10:02 PM,17.6,14.0,86,29.54,0.8,NW,6.9,-,0.00,Snow,Light Snow,310,2013-01-11 05:02:00
10:32 PM,15.8,14.0,93,29.55,1.0,WNW,6.9,-,0.01,Snow,Light Snow,290,2013-01-11 05:32:00
10:37 PM,15.8,14.0,93,29.54,2.0,WNW,8.1,-,0.01,Snow,Light Snow,290,2013-01-11 05:37:00
10:45 PM,15.8,12.2,86,29.54,5.0,NW,5.8,-,0.01,Snow,Light Snow,310,2013-01-11 05:45:00
10:53 PM,16.0,12.9,88,29.53,4.0,NW,4.6,-,0.01,Snow,Light Snow,320,2013-01-11 05:53:00
10:57 PM,15.8,12.2,86,29.55,2.5,NNW,4.6,-,0.00,Snow,Light Snow,330,2013-01-11 05:57:00
11:10 PM,15.8,12.2,86,29.55,2.0,NW,3.5,-,0.00,Snow,Light Snow,320,2013-01-11 06:10:00
11:20 PM,15.8,12.2,86,29.54,3.0,Calm,Calm,-,0.01,Snow,Light Snow,0,2013-01-11 06:20:00
11:53 PM,10.9,8.1,88,29.55,10.0,West,5.8,-,0.01,,Overcast,260,2013-01-11 06:53:00